This is the latest recevied weather packets stored in our database for station/object WP4PW. If no packets are shown the sender has not sent any weather packets the latest 10 day(s).
| Time | Temp. | Humidity | Pressure | Rain* | Wind** | Luminosity | Snow |
|---|---|---|---|---|---|---|---|
| 1778186123 | 28.33° C | 83% | 1019.3 hPa | 0 mm | - | 110 W/m² | - |
| 1778185820 | 28.33° C | 83% | 1019.3 hPa | 0 mm | - | 76 W/m² | - |
| 1778185515 | 28.33° C | 83% | 1019.3 hPa | 0 mm | - | 76 W/m² | - |
| 1778185212 | 28.89° C | 83% | 1019.4 hPa | 0 mm | - | 57 W/m² | - |
| 1778184908 | 28.89° C | 83% | 1019.5 hPa | 0 mm | - | 77 W/m² | - |
| 1778184604 | 29.44° C | 82% | 1019.6 hPa | 0 mm | - | 164 W/m² | - |
| 1778184300 | 29.44° C | 80% | 1019.5 hPa | 0 mm | - | 193 W/m² | - |
| 1778183995 | 29.44° C | 79% | 1019.6 hPa | 0 mm | - | 583 W/m² | - |
| 1778183693 | 28.89° C | 79% | 1019.6 hPa | 0 mm | - | 463 W/m² | - |
| 1778183390 | 28.89° C | 81% | 1019.7 hPa | 0 mm | - | 225 W/m² | - |
| 1778183087 | 28.89° C | 80% | 1019.7 hPa | 0 mm | - | 126 W/m² | - |
| 1778182783 | 28.89° C | 81% | 1019.9 hPa | 0 mm | - | 119 W/m² | - |
| 1778182480 | 29.44° C | 80% | 1019.8 hPa | 0 mm | - | 583 W/m² | - |
| 1778182177 | 30° C | 80% | 1020 hPa | 0 mm | - | 228 W/m² | - |
| 1778181873 | 30° C | 79% | 1019.8 hPa | 0 mm | - | 601 W/m² | - |
| 1778181570 | 29.44° C | 79% | 1019.8 hPa | 0 mm | - | 612 W/m² | - |
| 1778181266 | 30° C | 78% | 1020 hPa | 0 mm | - | 625 W/m² | - |
| 1778180962 | 29.44° C | 80% | 1020.2 hPa | 0 mm | - | 336 W/m² | - |
| 1778180660 | 30° C | 79% | 1020.1 hPa | 0 mm | - | 666 W/m² | - |
| 1778180359 | 30° C | 79% | 1020 hPa | 0 mm | - | 258 W/m² | - |
| 1778180056 | 30° C | 77% | 1020.2 hPa | 0 mm | - | 629 W/m² | - |
| 1778179753 | 30° C | 79% | 1020.1 hPa | 0 mm | - | 673 W/m² | - |
| 1778179451 | 30° C | 78% | 1020 hPa | 0 mm | - | 678 W/m² | - |
| 1778179148 | 31.11° C | 74% | 1020 hPa | 0 mm | - | 654 W/m² | - |
| 1778178845 | 30° C | 78% | 1020 hPa | 0 mm | - | 666 W/m² | - |
* Rain latest hour (hover to see other rain measurements)
** Current wind speed in m/s (hover to see current wind gust speed)